BREEZE-KM DEB, 41719

Orbit data source: Space-Track

BREEZE-KM DEB, 41719 is space debris in LEO originally from a launch on Tue, 31 Mar 2015 UTC launched from the Plesetsk Missile And Space Complex (PKMTR). Debris objects in space refer to the collection of defunct objects orbiting the Earth. Examples of debris include non-operational satellites, rocket bodies, and fragments generated from explosions, collisions, or faulty payload assembly.

Loading next visibility...
Identifier
41719, 2015-020G
Orbit
LEO
Country
Flag of CISCIS
Related business
Manufacturer
Khrunichev
Mission
Spacecraft
Bus & Motor
Unknown
Mass
Unknown
Launch date (UTC)
2015-03-31 (11 years ago)
Launch vehicle
Unknown
Launch site
Plesetsk Missile And Space Complex (PKMTR)
Object type
Payload
Rocket body
Debris
Shape & HBR
Unknown shape, 0.1 m
Radar Cross Section
Medium (>0.1 m² and <1 m²)

Expand to show TLE details & history
Last TLE update: 15 hours ago

TLE from 15 hours ago
0 BREEZE-KM DEB
1 41719U 15020G   26237.20946983  .00000018  00000-0  33754-4 0  9996
2 41719  82.4932 187.6374 0221530 333.3860  25.6000 12.75195653521259
Epoch: 2026-08-25T05:01Z
TLE epoch observation values (Epoch: 2026-08-25T05:01:38.193Z)
Latitude
-0°
Longitude
138.74816°
Altitude
1,209.688 km
Speed
7.321 km/s
True Right ascension
12h 30m 32s
True Declination
0° 00' 00"
Sunlit
Object was in daylight at epoch
Visualization orbit readout
Latitude
Unknown
Longitude
Unknown
Altitude
Unknown
Speed
Unknown
Apparent Right ascension
Unknown
Apparent Declination
Unknown
Sunlit
N/A
Visualization observer readout
Local Sidereal Time
11:20:15
Azimuth
Unknown
Elevation
Unknown
Doppler factor
Unknown
Orbital elements
Apogee altitude
1,529.533 km
Perigee altitude
1,186.769 km
Semi-major axis
7,736.288 km
Eccentricity
0.02215
Inclination
82.4932°
RAAN
187.6374°
Arg. of periapsis
333.386°
True anomaly
26.72486°
Mean anomaly
25.6°
Eccentric anomaly
26.15959°
Mean motion
3.18966 °/min
Orbital period
112.86 mins
BSTAR
0.000033754
Loading maneuver chart data...
Computing Atmospheric mass density...
Loading historical data...
Loading historical data...
Loading historical data...
Loading historical data...
Loading historical data...
Loading historical data...
Loading historical data...

Documentation

Showing up to 5 results
|